Weather in Chusovoy

Russia / Perm Krai     58°17′51″N   57°49′09″E
temp.,
°C
wind,
m/s
gust,
m/s
humid.,
%
clouds,
%
prec.,
mm/h
press.,
hPa
HPBL,
m
5 august, thu
thu523:00+20se228454 0.0 101012
02:00+19wsw1996100 2.9 1010261
05:00+17sse229338 3.4 100824
08:00+19ssw278868 0.0 1008240
11:00+22sw4672100 0.0 1008675
14:00+22wsw457091 0.1 1009942
17:00+18wnw488897 0.2 1010571
20:00+16wnw4888100 0.0 1011681
6 august, fri
fri623:00+15wnw4108693 0.0 1011689
02:00+14nw4118690 0.0 1011648
05:00+13nw4128866 0.0 1012557
08:00+14nw412715 0.0 1013538
11:00+18nw58517 0.0 10131070
14:00+20nw574054 0.0 10141624
17:00+20nnw574313 0.0 10141618
20:00+16nw37670 0.0 1015235
7 august, sat
sat723:00+11wnw228354 0.0 101617
02:00+9wnw11906 0.0 101613
05:00+8wnw11925 0.0 101720
08:00+12nw387060 0.0 1018398
11:00+15wnw475692 0.0 10171203
14:00+18wnw57465 0.0 10171721
17:00+18nw574567 0.0 10171901
20:00+14n37640 0.0 1019322
8 august, sun
sun823:00+9wsw118397 0.0 101910
02:00+8w1187100 0.0 102010
05:00+6w119483 0.0 102010
08:00+11nw38724 0.0 1021388
11:00+16nw585124 0.0 10201155
14:00+18nw57420 0.0 10191480
17:00+19nw46425 0.0 10191494
20:00+15wnw25695 0.0 1019112
9 august, mon
mon923:00+10nw11855 0.0 102010
02:00+11nw117639 0.0 102015
05:00+8ssw008925 0.0 102010
08:00+12wnw1174100 0.0 1020130
11:00+17nne1158100 0.0 1018378
14:00+19wsw1149100 0.0 1018686
17:00+21sse344959 0.0 1016633
20:00+17e2280100 0.1 101419